Oak Ridge, TN

11:11 AM EDT on June 26, 2017 (GMT -0400)
Oak Ridge

Weather History for KOQT - January, 2014

Change the Weather History Date:

Tuesday, January 21, 2014

  Actual Average (KTYS) Record (KTYS)
Temperature  
Mean Temperature 30 °F -  
Max Temperature 42 °F 46 °F 72 °F (1959)
Min Temperature 18 °F 27 °F -24 °F (1985)
Degree Days  
Heating Degree Days 34    
Moisture  
Dew Point 22 °F    
Average Humidity 68    
Maximum Humidity 92    
Minimum Humidity 53    
Precipitation  
Precipitation 0.04 in - - ()
Sea Level Pressure  
Sea Level Pressure 29.91 in    
Wind  
Wind Speed 5 mph (NW)    
Max Wind Speed 13 mph    
Max Gust Speed 22 mph    
Visibility 9 miles    
Events Rain , Snow    
Averages and records for this station are not official NWS values.
T = Trace of Precipitation, MM = Missing Value Source: NWS Daily Summary

Daily Weather History Graph

Daily Weather History Graph

Search for Another Location

Airport or City:

Trip Planner

Search our weather history database for the weather conditions in past years. The results will help you decide how hot, cold, wet, or windy it might be!

Date:

Astronomy

Jan. 21, 2014 Rise Set
Actual Time 7:44 AM EST 5:52 PM EST
Civil Twilight 7:16 AM EST 6:19 PM EST
Nautical Twilight 6:45 AM EST 6:51 PM EST
Astronomical Twilight 6:15 AM EST 7:21 PM EST
Moon 11:12 PM EST (1/21) 10:24 AM EST (1/21)
Length of Visible Light 11h 02m
Length of Day
10h 07m
Waning Gibbous, 75% of the Moon is Illuminated
Jan 21
Waning Gibbous
Jan 24
Last Quarter
Jan 30
New
Feb 6
First Quarter
Feb 14
Full

Hourly Weather History & Observations

Time (EST) Temp. Windchill Dew Point Humidity Pressure Visibility Wind Dir Wind Speed Gust Speed Precip Events Conditions
12:53 AM 35.1 °F - 28.0 °F 76% 29.83 in 10.0 mi Calm Calm - N/A   Clear
1:53 AM 34.0 °F - 28.0 °F 79% 29.79 in 10.0 mi Calm Calm - N/A   Mostly Cloudy
2:53 AM 37.0 °F - 28.9 °F 73% 29.76 in 10.0 mi Calm Calm - N/A   Overcast
3:53 AM 39.9 °F 37.8 °F 28.9 °F 65% 29.74 in 10.0 mi West 3.5 mph - N/A   Overcast
4:53 AM 39.0 °F 36.8 °F 28.9 °F 67% 29.73 in 10.0 mi WSW 3.5 mph - N/A   Clear
5:53 AM 37.9 °F 34.4 °F 28.0 °F 68% 29.73 in 10.0 mi SW 4.6 mph - N/A   Clear
6:53 AM 39.9 °F 36.7 °F 28.0 °F 63% 29.75 in 10.0 mi WSW 4.6 mph - N/A   Clear
7:53 AM 39.9 °F 35.8 °F 28.9 °F 65% 29.77 in 10.0 mi Variable 5.8 mph - N/A   Overcast
8:53 AM 39.9 °F 36.7 °F 28.9 °F 65% 29.79 in 10.0 mi Variable 4.6 mph - N/A   Clear
9:53 AM 42.1 °F 37.1 °F 28.0 °F 58% 29.81 in 10.0 mi West 8.1 mph 16.1 mph N/A   Partly Cloudy
10:53 AM 41.0 °F 33.9 °F 28.9 °F 62% 29.84 in 10.0 mi West 12.7 mph 20.7 mph N/A   Overcast
11:53 AM 41.0 °F 35.8 °F 28.0 °F 60% 29.85 in 10.0 mi West 8.1 mph - 0.00 in Rain Light Rain
12:53 PM 41.0 °F 35.8 °F 25.0 °F 53% 29.82 in 10.0 mi West 8.1 mph 17.3 mph 0.00 in   Overcast
1:48 PM 36.0 °F 29.0 °F 32.0 °F 86% 29.85 in 4.0 mi WNW 9.2 mph 20.7 mph 0.00 in Snow Light Snow
1:51 PM 36.0 °F 30.3 °F 32.0 °F 86% 29.81 in 1.8 mi Variable 6.9 mph 19.6 mph 0.01 in Snow Light Snow
2:02 PM 35.1 °F 31.0 °F 33.1 °F 92% 29.82 in 1.2 mi Variable 4.6 mph - 0.02 in Snow Light Snow
2:14 PM 35.1 °F 30.1 °F 33.1 °F 92% 29.82 in 2.0 mi Variable 5.8 mph - 0.03 in Snow Light Snow
2:30 PM 35.1 °F 28.6 °F 30.9 °F 85% 29.83 in 2.5 mi North 8.1 mph - 0.04 in Snow Light Snow
2:36 PM 35.1 °F 29.3 °F 30.9 °F 85% 29.84 in 4.0 mi Variable 6.9 mph - 0.04 in Snow Light Snow
2:53 PM 33.1 °F 25.5 °F 26.1 °F 75% 29.89 in 10.0 mi North 9.2 mph - 0.04 in   Overcast
3:32 PM 28.9 °F 20.4 °F 21.0 °F 72% 29.89 in 10.0 mi North 9.2 mph 21.9 mph N/A   Mostly Cloudy
3:53 PM 28.0 °F 19.3 °F 19.0 °F 69% 29.96 in 10.0 mi NNW 9.2 mph 18.4 mph N/A   Overcast
4:00 PM 27.0 °F 16.1 °F 19.0 °F 72% 29.93 in 10.0 mi North 12.7 mph 19.6 mph N/A   Overcast
4:42 PM 27.0 °F 18.7 °F 16.0 °F 63% 29.97 in 10.0 mi North 8.1 mph - N/A   Overcast
4:53 PM 26.1 °F 19.4 °F 16.0 °F 66% 30.03 in 10.0 mi North 5.8 mph - N/A   Overcast
5:08 PM 25.0 °F 18.1 °F 14.0 °F 63% 30.00 in 10.0 mi North 5.8 mph 16.1 mph N/A   Overcast
5:15 PM 25.0 °F 16.3 °F 12.9 °F 60% 30.00 in 10.0 mi NNE 8.1 mph - N/A   Overcast
5:53 PM 24.1 °F 15.2 °F 12.0 °F 60% 30.08 in 10.0 mi NW 8.1 mph - N/A   Overcast
6:12 PM 23.0 °F 15.8 °F 12.0 °F 63% 30.04 in 10.0 mi NNW 5.8 mph - N/A   Overcast
6:19 PM 23.0 °F 17.0 °F 12.0 °F 63% 30.04 in 10.0 mi Variable 4.6 mph - N/A   Overcast
6:53 PM 21.9 °F 13.4 °F 10.0 °F 60% 30.12 in 10.0 mi North 6.9 mph - N/A   Overcast
7:53 PM 19.9 °F 11.1 °F 9.0 °F 62% 30.15 in 10.0 mi North 6.9 mph 17.3 mph 0.00 in Snow Light Snow
8:53 PM 19.9 °F 10.1 °F 8.1 °F 60% 30.15 in 10.0 mi North 8.1 mph - 0.00 in   Overcast
9:53 PM 19.9 °F 10.1 °F 8.1 °F 60% 30.15 in 10.0 mi North 8.1 mph - N/A   Overcast
10:53 PM 19.0 °F 12.3 °F 8.1 °F 62% 30.14 in 10.0 mi Variable 4.6 mph - N/A   Overcast
11:53 PM 18.0 °F 8.7 °F 3.9 °F 54% 30.15 in 10.0 mi NNW 6.9 mph - N/A   Partly Cloudy